Retour au catalogue

OPS 4029

ActifMilitaireMEO
NORAD 12930·PAYLOAD·🇺🇸 United States

Lancé Oct 31, 1981 depuis Cape Canaveral Space Force Station

Loading…

Prochains Passages (prochaines 24 heures)

TLE

FraisSource: Space-Track

Époque: Sep 14, 2026, 05:50 UTC

1 12930U 81107A   26257.24344417 -.00000442  00000-0  00000-0 0  9994
2 12930   5.6461   2.4466 1042832  45.1067 154.4163  1.00349793  8765

Suivez OPS 4029 en temps réel avec AllMySat

Download on the App Store